Time,TemperatureF,DewpointF,PressureIn,WindDirection,WindDirectionDegrees,WindSpeedMPH,WindSpeedGustMPH,Humidity,HourlyPrecipIn,Conditions,Clouds,dailyrainin,SolarRadiationWatts/m^2,SoftwareType,DateUTC
2013-06-14 00:01:00,80.0,72.0,-100.00,West,273,3.0,-999.0,76,0.00,,,-99.99,0.000000,,2013-06-14 04:01:00,
2013-06-14 00:12:00,80.0,72.0,-100.00,West,276,3.0,-999.0,77,0.00,,,-99.99,0.000000,,2013-06-14 04:12:00,
2013-06-14 00:22:00,79.0,72.0,-100.00,West,281,3.0,-999.0,78,0.00,,,-99.99,0.000000,,2013-06-14 04:22:00,
2013-06-14 00:33:00,79.0,72.0,-100.00,West,281,3.0,-999.0,78,0.00,,,-99.99,0.000000,,2013-06-14 04:33:00,
2013-06-14 00:43:00,79.0,72.0,-100.00,West,275,3.0,-999.0,81,0.00,,,-99.99,0.000000,,2013-06-14 04:43:00,
2013-06-14 00:53:00,79.0,72.0,-100.00,West,275,3.0,-999.0,81,0.00,,,-99.99,0.000000,,2013-06-14 04:53:00,
2013-06-14 01:02:00,79.0,72.0,-100.00,West,275,3.0,-999.0,81,0.00,,,-99.99,0.000000,,2013-06-14 05:02:00,
2013-06-14 01:11:00,78.0,73.0,-100.00,WNW,284,4.0,-999.0,83,0.00,,,-99.99,0.000000,,2013-06-14 05:11:00,
2013-06-14 01:22:00,78.0,73.0,-100.00,West,272,3.0,-999.0,84,0.00,,,-99.99,0.000000,,2013-06-14 05:22:00,
2013-06-14 01:34:00,78.0,73.0,-100.00,West,272,3.0,-999.0,84,0.00,,,-99.99,0.000000,,2013-06-14 05:34:00,
2013-06-14 01:43:00,78.0,73.0,-100.00,WSW,254,3.0,-999.0,85,0.00,,,-99.99,0.000000,,2013-06-14 05:43:00,
2013-06-14 01:52:00,78.0,73.0,-100.00,WSW,254,3.0,-999.0,85,0.00,,,-99.99,0.000000,,2013-06-14 05:52:00,
2013-06-14 02:02:00,78.0,73.0,-100.00,WSW,254,3.0,-999.0,85,0.00,,,-99.99,0.000000,,2013-06-14 06:02:00,
2013-06-14 02:12:00,77.0,73.0,-100.00,West,260,3.0,-999.0,86,0.00,,,-99.99,0.000000,,2013-06-14 06:12:00,
2013-06-14 02:22:00,77.0,73.0,-100.00,WSW,248,3.0,-999.0,87,0.00,,,-99.99,0.000000,,2013-06-14 06:22:00,
2013-06-14 02:33:00,77.0,73.0,-100.00,WSW,246,2.0,-999.0,88,0.00,,,-99.99,0.000000,,2013-06-14 06:33:00,
2013-06-14 02:43:00,76.0,73.0,-100.00,SW,232,2.0,-999.0,89,0.00,,,-99.99,0.000000,,2013-06-14 06:43:00,
2013-06-14 02:52:00,76.0,73.0,-100.00,SW,232,2.0,-999.0,89,0.00,,,-99.99,0.000000,,2013-06-14 06:52:00,
2013-06-14 03:02:00,76.0,73.0,-100.00,WSW,243,3.0,-999.0,90,0.00,,,-99.99,0.000000,,2013-06-14 07:02:00,
2013-06-14 03:12:00,76.0,73.0,-100.00,SW,230,2.0,-999.0,90,0.00,,,-99.99,0.000000,,2013-06-14 07:12:00,
2013-06-14 03:22:00,76.0,73.0,-100.00,SW,230,2.0,-999.0,90,0.00,,,-99.99,0.000000,,2013-06-14 07:22:00,
2013-06-14 03:33:00,76.0,73.0,-100.00,SW,230,2.0,-999.0,91,0.00,,,-99.99,0.000000,,2013-06-14 07:33:00,
2013-06-14 03:43:00,76.0,73.0,-100.00,SW,216,2.0,-999.0,92,0.00,,,-99.99,0.000000,,2013-06-14 07:43:00,
2013-06-14 03:53:00,76.0,73.0,-100.00,SW,216,2.0,-999.0,92,0.00,,,-99.99,0.000000,,2013-06-14 07:53:00,
2013-06-14 04:02:00,75.0,73.0,-100.00,SW,226,2.0,-999.0,92,0.00,,,-99.99,0.000000,,2013-06-14 08:02:00,
2013-06-14 04:12:00,75.0,73.0,-100.00,SW,222,2.0,-999.0,93,0.00,,,-99.99,0.000000,,2013-06-14 08:12:00,
2013-06-14 04:23:00,75.0,73.0,-100.00,SW,222,2.0,-999.0,93,0.00,,,-99.99,0.000000,,2013-06-14 08:23:00,
2013-06-14 04:33:00,75.0,73.0,-100.00,SW,222,2.0,-999.0,93,0.00,,,-99.99,0.000000,,2013-06-14 08:33:00,
2013-06-14 04:43:00,76.0,74.0,-100.00,West,259,4.0,-999.0,93,0.00,,,-99.99,0.000000,,2013-06-14 08:43:00,
2013-06-14 04:53:00,76.0,74.0,-100.00,West,259,4.0,-999.0,93,0.00,,,-99.99,0.000000,,2013-06-14 08:53:00,
2013-06-14 05:02:00,76.0,74.0,-100.00,WSW,245,4.0,-999.0,93,0.00,,,-99.99,0.000000,,2013-06-14 09:02:00,
2013-06-14 05:12:00,76.0,74.0,-100.00,WSW,245,4.0,-999.0,93,0.00,,,-99.99,0.000000,,2013-06-14 09:12:00,
2013-06-14 05:22:00,76.0,74.0,-100.00,WSW,247,4.0,-999.0,93,0.00,,,-99.99,0.000000,,2013-06-14 09:22:00,
2013-06-14 05:33:00,76.0,74.0,-100.00,WSW,247,4.0,-999.0,93,0.00,,,-99.99,0.000000,,2013-06-14 09:33:00,
2013-06-14 05:43:00,76.0,74.0,-100.00,SW,235,2.0,-999.0,93,0.00,,,-99.99,0.000000,,2013-06-14 09:43:00,
2013-06-14 05:53:00,76.0,74.0,-100.00,SW,226,2.0,-999.0,93,0.00,,,-99.99,0.000000,,2013-06-14 09:53:00,
2013-06-14 06:01:00,76.0,74.0,-100.00,SW,226,2.0,-999.0,93,0.00,,,-99.99,0.000000,,2013-06-14 10:01:00,
2013-06-14 06:12:00,75.0,73.0,-100.00,SW,231,2.0,-999.0,93,0.00,,,-99.99,0.000000,,2013-06-14 10:12:00,
2013-06-14 06:22:00,75.0,74.0,-100.00,WSW,244,3.0,-999.0,94,0.00,,,-99.99,0.000000,,2013-06-14 10:22:00,
2013-06-14 06:34:00,75.0,74.0,-100.00,WSW,247,3.0,-999.0,94,0.00,,,-99.99,0.000000,,2013-06-14 10:34:00,
2013-06-14 06:43:00,76.0,74.0,-100.00,SW,227,3.0,-999.0,94,0.00,,,-99.99,1.700000,,2013-06-14 10:43:00,
2013-06-14 06:53:00,76.0,74.0,-100.00,SW,227,3.0,-999.0,94,0.00,,,-99.99,1.700000,,2013-06-14 10:53:00,
2013-06-14 07:02:00,76.0,74.0,-100.00,SW,227,3.0,-999.0,94,0.00,,,-99.99,1.700000,,2013-06-14 11:02:00,
2013-06-14 07:11:00,76.0,74.0,-100.00,WSW,241,3.0,-999.0,93,0.00,,,-99.99,10.800000,,2013-06-14 11:11:00,
2013-06-14 07:23:00,76.0,74.0,-100.00,SW,234,3.0,-999.0,93,0.00,,,-99.99,34.400002,,2013-06-14 11:23:00,
2013-06-14 07:32:00,76.0,74.0,-100.00,SW,234,3.0,-999.0,93,0.00,,,-99.99,34.400002,,2013-06-14 11:32:00,
2013-06-14 07:43:00,77.0,75.0,-100.00,SW,232,3.0,-999.0,92,0.00,,,-99.99,123.500000,,2013-06-14 11:43:00,
2013-06-14 07:52:00,77.0,75.0,-100.00,SW,232,3.0,-999.0,92,0.00,,,-99.99,123.500000,,2013-06-14 11:52:00,
2013-06-14 08:02:00,77.0,75.0,-100.00,SW,232,3.0,-999.0,92,0.00,,,-99.99,123.500000,,2013-06-14 12:02:00,
2013-06-14 08:12:00,78.0,75.0,-100.00,SW,228,3.0,-999.0,91,0.00,,,-99.99,195.100006,,2013-06-14 12:12:00,
2013-06-14 08:22:00,79.0,75.0,-100.00,WSW,245,5.0,-999.0,89,0.00,,,-99.99,262.600006,,2013-06-14 12:22:00,
2013-06-14 08:33:00,79.0,75.0,-100.00,WSW,245,5.0,-999.0,89,0.00,,,-99.99,262.600006,,2013-06-14 12:33:00,
2013-06-14 08:43:00,81.0,75.0,-100.00,West,269,5.0,-999.0,81,0.00,,,-99.99,335.899994,,2013-06-14 12:43:00,
2013-06-14 08:52:00,81.0,75.0,-100.00,West,269,5.0,-999.0,81,0.00,,,-99.99,335.899994,,2013-06-14 12:52:00,
2013-06-14 09:02:00,81.0,75.0,-100.00,West,269,5.0,-999.0,81,0.00,,,-99.99,335.899994,,2013-06-14 13:02:00,
2013-06-14 09:11:00,81.0,74.0,-100.00,West,273,7.0,-999.0,80,0.00,,,-99.99,375.200012,,2013-06-14 13:11:00,
2013-06-14 09:22:00,81.0,74.0,-100.00,West,268,7.0,-999.0,79,0.00,,,-99.99,424.000000,,2013-06-14 13:22:00,
2013-06-14 09:33:00,81.0,74.0,-100.00,West,268,7.0,-999.0,79,0.00,,,-99.99,424.000000,,2013-06-14 13:33:00,
2013-06-14 09:43:00,83.0,74.0,-100.00,West,272,8.0,-999.0,74,0.00,,,-99.99,522.599976,,2013-06-14 13:43:00,
2013-06-14 09:53:00,83.0,74.0,-100.00,West,272,8.0,-999.0,74,0.00,,,-99.99,522.599976,,2013-06-14 13:53:00,
2013-06-14 10:02:00,83.0,74.0,-100.00,West,272,8.0,-999.0,74,0.00,,,-99.99,522.599976,,2013-06-14 14:02:00,
2013-06-14 10:11:00,83.0,74.0,-100.00,West,271,7.0,-999.0,72,0.00,,,-99.99,557.299988,,2013-06-14 14:11:00,
2013-06-14 10:22:00,84.0,74.0,-100.00,West,266,8.0,-999.0,72,0.00,,,-99.99,603.900024,,2013-06-14 14:22:00,
2013-06-14 10:34:00,84.0,74.0,-100.00,West,272,7.0,-999.0,70,0.00,,,-99.99,654.000000,,2013-06-14 14:34:00,
2013-06-14 10:43:00,85.0,73.0,-100.00,WNW,282,9.0,-999.0,68,0.00,,,-99.99,713.000000,,2013-06-14 14:43:00,
2013-06-14 10:52:00,85.0,73.0,-100.00,WNW,282,9.0,-999.0,68,0.00,,,-99.99,713.000000,,2013-06-14 14:52:00,
2013-06-14 11:01:00,85.0,73.0,-100.00,WNW,282,9.0,-999.0,68,0.00,,,-99.99,713.000000,,2013-06-14 15:01:00,
2013-06-14 11:11:00,85.0,73.0,-100.00,West,268,8.0,-999.0,67,0.00,,,-99.99,754.000000,,2013-06-14 15:11:00,
2013-06-14 11:23:00,86.0,73.0,-100.00,West,272,8.0,-999.0,65,0.00,,,-99.99,778.000000,,2013-06-14 15:23:00,
2013-06-14 11:33:00,86.0,72.0,-100.00,West,271,9.0,-999.0,63,0.00,,,-99.99,773.000000,,2013-06-14 15:33:00,
2013-06-14 11:44:00,86.0,72.0,-100.00,West,276,9.0,-999.0,62,0.00,,,-99.99,676.500000,,2013-06-14 15:44:00,
2013-06-14 11:53:00,86.0,72.0,-100.00,West,276,9.0,-999.0,62,0.00,,,-99.99,676.500000,,2013-06-14 15:53:00,
2013-06-14 12:01:00,86.0,72.0,-100.00,West,276,9.0,-999.0,62,0.00,,,-99.99,676.500000,,2013-06-14 16:01:00,
2013-06-14 12:11:00,86.0,72.0,-100.00,West,279,8.0,-999.0,61,0.00,,,-99.99,621.200012,,2013-06-14 16:11:00,
2013-06-14 12:23:00,87.0,72.0,-100.00,West,276,8.0,-999.0,61,0.00,,,-99.99,832.000000,,2013-06-14 16:23:00,
2013-06-14 12:33:00,87.0,72.0,-100.00,West,276,8.0,-999.0,61,0.00,,,-99.99,832.000000,,2013-06-14 16:33:00,
2013-06-14 12:43:00,87.0,73.0,-100.00,West,274,8.0,-999.0,63,0.00,,,-99.99,616.400024,,2013-06-14 16:43:00,
2013-06-14 12:53:00,87.0,73.0,-100.00,West,274,8.0,-999.0,63,0.00,,,-99.99,616.400024,,2013-06-14 16:53:00,
2013-06-14 13:02:00,87.0,73.0,-100.00,West,274,8.0,-999.0,63,0.00,,,-99.99,616.400024,,2013-06-14 17:02:00,
2013-06-14 13:12:00,88.0,72.0,-100.00,West,268,8.0,-999.0,58,0.00,,,-99.99,935.000000,,2013-06-14 17:12:00,
2013-06-14 13:22:00,89.0,72.0,-100.00,West,276,8.0,-999.0,58,0.00,,,-99.99,732.000000,,2013-06-14 17:22:00,
2013-06-14 13:34:00,89.0,72.0,-100.00,West,276,8.0,-999.0,58,0.00,,,-99.99,732.000000,,2013-06-14 17:34:00,
2013-06-14 13:43:00,87.0,71.0,-100.00,West,278,7.0,-999.0,58,0.00,,,-99.99,316.799988,,2013-06-14 17:43:00,
2013-06-14 13:53:00,87.0,71.0,-100.00,West,278,7.0,-999.0,58,0.00,,,-99.99,316.799988,,2013-06-14 17:53:00,
2013-06-14 14:02:00,87.0,71.0,-100.00,West,278,7.0,-999.0,58,0.00,,,-99.99,316.799988,,2013-06-14 18:02:00,
2013-06-14 14:11:00,87.0,71.0,-100.00,West,277,8.0,-999.0,59,0.00,,,-99.99,475.799988,,2013-06-14 18:11:00,
2013-06-14 14:22:00,89.0,72.0,-100.00,WNW,284,8.0,-999.0,57,0.00,,,-99.99,843.000000,,2013-06-14 18:22:00,
2013-06-14 14:32:00,89.0,72.0,-100.00,West,279,8.0,-999.0,56,0.00,,,-99.99,897.000000,,2013-06-14 18:32:00,
2013-06-14 14:43:00,89.0,72.0,-100.00,West,279,8.0,-999.0,56,0.00,,,-99.99,897.000000,,2013-06-14 18:43:00,
2013-06-14 14:52:00,89.0,71.0,-100.00,West,278,8.0,-999.0,55,0.00,,,-99.99,827.000000,,2013-06-14 18:52:00,
2013-06-14 15:01:00,89.0,71.0,-100.00,West,278,8.0,-999.0,55,0.00,,,-99.99,827.000000,,2013-06-14 19:01:00,
2013-06-14 15:11:00,90.0,71.0,-100.00,West,277,6.0,-999.0,54,0.00,,,-99.99,638.099976,,2013-06-14 19:11:00,
2013-06-14 15:22:00,89.0,72.0,-100.00,WNW,284,7.0,-999.0,56,0.00,,,-99.99,748.000000,,2013-06-14 19:22:00,
2013-06-14 15:32:00,89.0,72.0,-100.00,WNW,284,7.0,-999.0,56,0.00,,,-99.99,748.000000,,2013-06-14 19:32:00,
2013-06-14 15:43:00,90.0,72.0,-100.00,WNW,286,6.0,-999.0,56,0.00,,,-99.99,748.000000,,2013-06-14 19:43:00,
2013-06-14 15:53:00,90.0,72.0,-100.00,WNW,286,6.0,-999.0,56,0.00,,,-99.99,748.000000,,2013-06-14 19:53:00,
2013-06-14 16:02:00,90.0,72.0,-100.00,WNW,286,6.0,-999.0,56,0.00,,,-99.99,748.000000,,2013-06-14 20:02:00,
2013-06-14 16:11:00,90.0,72.0,-100.00,West,277,6.0,-999.0,55,0.00,,,-99.99,694.900024,,2013-06-14 20:11:00,
2013-06-14 16:22:00,90.0,72.0,-100.00,West,279,8.0,-999.0,55,0.00,,,-99.99,838.000000,,2013-06-14 20:22:00,
2013-06-14 16:33:00,90.0,72.0,-100.00,West,279,8.0,-999.0,55,0.00,,,-99.99,838.000000,,2013-06-14 20:33:00,
2013-06-14 16:43:00,90.0,73.0,-100.00,West,281,8.0,-999.0,58,0.00,,,-99.99,727.000000,,2013-06-14 20:43:00,
2013-06-14 16:53:00,90.0,73.0,-100.00,West,281,8.0,-999.0,58,0.00,,,-99.99,727.000000,,2013-06-14 20:53:00,
2013-06-14 17:02:00,90.0,73.0,-100.00,West,281,8.0,-999.0,58,0.00,,,-99.99,727.000000,,2013-06-14 21:02:00,
2013-06-14 17:12:00,89.0,73.0,-100.00,West,277,7.0,-999.0,58,0.00,,,-99.99,618.099976,,2013-06-14 21:12:00,
2013-06-14 17:22:00,89.0,72.0,-100.00,West,270,6.0,-999.0,57,0.00,,,-99.99,590.000000,,2013-06-14 21:22:00,
2013-06-14 17:34:00,89.0,72.0,-100.00,West,264,6.0,-999.0,56,0.00,,,-99.99,500.700012,,2013-06-14 21:34:00,
2013-06-14 17:42:00,89.0,72.0,-100.00,West,265,7.0,-999.0,57,0.00,,,-99.99,434.600006,,2013-06-14 21:42:00,
2013-06-14 17:52:00,89.0,72.0,-100.00,West,265,7.0,-999.0,57,0.00,,,-99.99,434.600006,,2013-06-14 21:52:00,
2013-06-14 18:02:00,88.0,71.0,-100.00,West,262,6.0,-999.0,57,0.00,,,-99.99,352.500000,,2013-06-14 22:02:00,
2013-06-14 18:12:00,88.0,71.0,-100.00,West,262,6.0,-999.0,57,0.00,,,-99.99,352.500000,,2013-06-14 22:12:00,
2013-06-14 18:22:00,88.0,70.0,-100.00,West,269,7.0,-999.0,55,0.00,,,-99.99,347.500000,,2013-06-14 22:22:00,
2013-06-14 18:33:00,88.0,70.0,-100.00,West,269,7.0,-999.0,55,0.00,,,-99.99,347.500000,,2013-06-14 22:33:00,
2013-06-14 18:43:00,88.0,70.0,-100.00,West,279,7.0,-999.0,55,0.00,,,-99.99,247.800003,,2013-06-14 22:43:00,
2013-06-14 18:53:00,88.0,70.0,-100.00,WNW,289,6.0,-999.0,54,0.00,,,-99.99,278.799988,,2013-06-14 22:53:00,
2013-06-14 19:02:00,88.0,70.0,-100.00,WNW,289,6.0,-999.0,54,0.00,,,-99.99,278.799988,,2013-06-14 23:02:00,
2013-06-14 19:12:00,88.0,69.0,-100.00,WNW,284,7.0,-999.0,54,0.00,,,-99.99,250.300003,,2013-06-14 23:12:00,
2013-06-14 19:22:00,87.0,70.0,-100.00,WNW,283,5.0,-999.0,56,0.00,,,-99.99,113.900002,,2013-06-14 23:22:00,
2013-06-14 19:33:00,87.0,70.0,-100.00,WNW,283,5.0,-999.0,56,0.00,,,-99.99,113.900002,,2013-06-14 23:33:00,
2013-06-14 19:43:00,86.0,70.0,-100.00,WNW,283,4.0,-999.0,59,0.00,,,-99.99,123.300003,,2013-06-14 23:43:00,
2013-06-14 19:52:00,86.0,70.0,-100.00,WNW,282,6.0,-999.0,59,0.00,,,-99.99,93.500000,,2013-06-14 23:52:00,
2013-06-14 20:01:00,86.0,71.0,-100.00,West,260,4.0,-999.0,60,0.00,,,-99.99,79.800003,,2013-06-15 00:01:00,
2013-06-14 20:11:00,86.0,71.0,-100.00,WSW,253,4.0,-999.0,61,0.00,,,-99.99,41.400002,,2013-06-15 00:11:00,
2013-06-14 20:23:00,86.0,71.0,-100.00,WSW,253,4.0,-999.0,61,0.00,,,-99.99,41.400002,,2013-06-15 00:23:00,
2013-06-14 20:34:00,85.0,71.0,-100.00,West,263,5.0,-999.0,63,0.00,,,-99.99,22.299999,,2013-06-15 00:34:00,
2013-06-14 20:43:00,84.0,71.0,-100.00,West,277,6.0,-999.0,64,0.00,,,-99.99,10.500000,,2013-06-15 00:43:00,
2013-06-14 20:53:00,84.0,71.0,-100.00,West,277,6.0,-999.0,64,0.00,,,-99.99,10.500000,,2013-06-15 00:53:00,
2013-06-14 21:01:00,84.0,71.0,-100.00,WNW,296,4.0,-999.0,66,0.00,,,-99.99,2.000000,,2013-06-15 01:01:00,
2013-06-14 21:11:00,83.0,71.0,-100.00,WNW,287,4.0,-999.0,67,0.00,,,-99.99,0.000000,,2013-06-15 01:11:00,
2013-06-14 21:22:00,83.0,71.0,-100.00,WNW,287,4.0,-999.0,67,0.00,,,-99.99,0.000000,,2013-06-15 01:22:00,
2013-06-14 21:33:00,83.0,72.0,-100.00,West,274,4.0,-999.0,69,0.00,,,-99.99,0.000000,,2013-06-15 01:33:00,
2013-06-14 21:43:00,83.0,72.0,-100.00,West,268,5.0,-999.0,71,0.00,,,-99.99,0.000000,,2013-06-15 01:43:00,
2013-06-14 21:54:00,83.0,72.0,-100.00,West,268,5.0,-999.0,71,0.00,,,-99.99,0.000000,,2013-06-15 01:54:00,
2013-06-14 22:02:00,82.0,73.0,-100.00,WNW,287,3.0,-999.0,73,0.00,,,-99.99,0.000000,,2013-06-15 02:02:00,
2013-06-14 22:11:00,82.0,73.0,-100.00,WNW,287,3.0,-999.0,73,0.00,,,-99.99,0.000000,,2013-06-15 02:11:00,
2013-06-14 22:23:00,82.0,73.0,-100.00,NW,306,3.0,-999.0,74,0.00,,,-99.99,0.000000,,2013-06-15 02:23:00,
2013-06-14 22:33:00,82.0,73.0,-100.00,NW,306,3.0,-999.0,74,0.00,,,-99.99,0.000000,,2013-06-15 02:33:00,
2013-06-14 22:43:00,81.0,73.0,-100.00,West,270,3.0,-999.0,75,0.00,,,-99.99,0.000000,,2013-06-15 02:43:00,
2013-06-14 22:53:00,81.0,73.0,-100.00,West,270,3.0,-999.0,75,0.00,,,-99.99,0.000000,,2013-06-15 02:53:00,
2013-06-14 23:01:00,81.0,73.0,-100.00,West,270,3.0,-999.0,75,0.00,,,-99.99,0.000000,,2013-06-15 03:01:00,
2013-06-14 23:11:00,81.0,72.0,-100.00,WSW,251,4.0,-999.0,75,0.00,,,-99.99,0.000000,,2013-06-15 03:11:00,
2013-06-14 23:24:00,81.0,73.0,-100.00,West,261,4.0,-999.0,75,0.00,,,-99.99,0.000000,,2013-06-15 03:24:00,
2013-06-14 23:32:00,81.0,73.0,-100.00,West,261,4.0,-999.0,75,0.00,,,-99.99,0.000000,,2013-06-15 03:32:00,
2013-06-14 23:44:00,81.0,73.0,-100.00,West,278,4.0,-999.0,76,0.00,,,-99.99,0.000000,,2013-06-15 03:44:00,
2013-06-14 23:53:00,80.0,73.0,-100.00,WNW,291,3.0,-999.0,78,0.00,,,-99.99,0.000000,,2013-06-15 03:53:00,